Tracking 28790 objects as of 19-Apr-2024
HD Live streaming from Space Station
objects crossing your sky now

DELTA 1 DEB *

Track DELTA 1 DEB * now!
10-day predictions


NORAD ID: 6213
Int'l Code: 1966-087E
Perigee: 1,169.3 km
Apogee: 1,223.4 km
Inclination: 101.8 °
Period: 109.2 minutes
Semi major axis: 7567 km
RCS: 0.0157 m2 (small)
Launch date: October 2, 1966
Source: United States (US)
Launch site: AIR FORCE WESTERN TEST RANGE (AFWTR)

Note: This is SATELLITE DEBRIS
Your satellite tracking list
Your tracking list is empty




NASA's NSSDC Master Catalog

Two Line Element Set (TLE):
1  6213U 66087E   24108.22284409  .00006558  00000-0  16651-1 0  9999
2  6213 101.8497  18.9122 0035777 151.8160   2.2412 13.18829176691764
Source of the keplerian elements: AFSPC